Date String (YYYY-MM-DD hh:mm:ss) UTC,Instrument flags,Ambient pressure (hPa),Sample flow (lpm),Bypass flow (lpm),Sample temperature (°C),Ambient temperature (°C),ASC tube jacket temperature (°C),LED temperature (°C),Box temperature (°C),Sample RH (%),Span deviation,Mass concentration (μg/m³),Mass concentration (μg/m³),Mass concentration (μg/m³)
DateTimeUTC,F1_M11,P_M11,Q1_M11,Q2_M11,T1_M11,T2_M11,T3_M11,T4_M11,T5_M11,U1_M11,ZSPAN_M11,X0_M11,X2_M11,X1_M11
2021-10-03 08:00:00,,0832.1,4.99,0.00,30.0,28.9,00.0,39.2,31.7,15.4,0002.2,0011.19,0005.20,0004.59
2021-10-03 08:01:00,,0832.1,5.00,0.00,30.0,28.9,00.0,39.2,31.7,15.4,0002.3,0010.73,0005.20,0004.59
2021-10-03 08:02:00,,0832.0,5.01,0.00,30.0,28.9,00.0,39.2,31.7,15.4,0002.1,0010.26,0005.20,0004.59
2021-10-03 08:03:00,,0832.1,4.99,0.00,30.0,28.9,00.0,39.2,31.7,15.4,0001.9,0010.18,0005.17,0004.59
2021-10-03 08:04:00,,0832.0,5.01,0.00,30.0,28.9,00.0,39.2,31.7,15.4,0001.6,0010.16,0005.18,0004.59
2021-10-03 08:05:00,,0832.1,5.01,0.00,30.0,28.9,00.0,39.2,31.7,15.4,0001.1,0009.80,0005.20,0004.59
2021-10-03 08:06:00,,0832.1,4.98,0.00,30.0,28.9,00.0,39.2,31.7,15.4,0000.9,0009.24,0005.23,0004.60
2021-10-03 08:07:00,,0832.1,5.02,0.00,30.0,28.9,00.0,39.2,31.7,15.4,0000.5,0008.90,0005.24,0004.60
2021-10-03 08:08:00,,0832.1,5.00,0.00,30.0,28.9,00.0,39.1,31.7,15.4,0000.5,0008.96,0005.26,0004.61
2021-10-03 08:09:00,,0832.1,5.01,0.00,30.0,28.8,00.0,39.1,31.6,15.4,0000.5,0009.03,0005.25,0004.62
2021-10-03 08:10:00,,0832.1,4.98,0.00,30.0,28.9,00.0,39.1,31.7,15.4,0000.3,0009.27,0005.25,0004.63
2021-10-03 08:11:00,,0832.1,5.01,0.00,30.0,28.9,00.0,39.1,31.7,15.4,0000.5,0010.00,0005.28,0004.64
2021-10-03 08:12:00,,0832.1,4.99,0.00,30.0,28.9,00.0,39.1,31.7,15.4,0000.6,0010.47,0005.32,0004.65
2021-10-03 08:13:00,,0832.0,5.01,0.00,29.9,28.9,00.0,39.1,31.6,15.4,0000.6,0011.09,0005.35,0004.66
2021-10-03 08:14:00,,0832.1,5.00,0.00,29.9,28.9,00.0,39.1,31.6,15.4,0000.8,0011.27,0005.36,0004.66
2021-10-03 08:15:00,,0832.1,4.99,0.00,29.9,28.9,00.0,39.1,31.6,15.5,0001.0,0011.27,0005.33,0004.66
2021-10-03 08:16:00,,0832.1,4.99,0.00,29.9,28.9,00.0,39.1,31.6,15.5,0001.2,0011.36,0005.35,0004.68
2021-10-03 08:17:00,,0832.1,4.99,0.00,29.9,28.8,00.0,39.1,31.6,15.5,0001.1,0011.30,0005.33,0004.68
2021-10-03 08:18:00,,0832.1,5.01,0.00,29.9,28.8,00.0,39.1,31.6,15.6,0001.6,0011.37,0005.34,0004.69
2021-10-03 08:19:00,,0832.1,4.99,0.00,29.9,28.8,00.0,39.1,31.6,15.5,0001.9,0011.46,0005.38,0004.70
2021-10-03 08:20:00,,0832.1,5.01,0.00,29.9,28.8,00.0,39.1,31.6,15.5,0002.2,0011.38,0005.39,0004.70
2021-10-03 08:21:00,,0832.1,5.00,0.00,29.9,28.8,00.0,39.1,31.6,15.6,0002.4,0011.24,0005.39,0004.70
2021-10-03 08:22:00,,0832.1,5.00,0.00,29.9,28.8,00.0,39.1,31.6,15.5,0002.6,0010.44,0005.35,0004.71
2021-10-03 08:23:00,,0832.1,4.99,0.00,29.9,28.8,00.0,39.1,31.6,15.5,0002.7,0009.92,0005.34,0004.73
2021-10-03 08:24:00,,0832.1,5.00,0.00,29.9,28.8,00.0,39.1,31.6,15.5,0003.1,0009.53,0005.34,0004.73
2021-10-03 08:25:00,,0832.1,5.01,0.00,29.9,28.7,00.0,39.1,31.5,15.5,0003.2,0009.93,0005.36,0004.74
2021-10-03 08:26:00,,0832.1,5.01,0.00,29.9,28.7,00.0,39.1,31.6,15.6,0003.4,0009.80,0005.36,0004.75
2021-10-03 08:27:00,,0832.1,5.00,0.00,29.9,28.8,00.0,39.1,31.6,15.6,0003.2,0009.97,0005.31,0004.74
2021-10-03 08:28:00,,0832.1,5.00,0.00,29.9,28.8,00.0,39.1,31.6,15.6,0003.1,0009.93,0005.30,0004.75
2021-10-03 08:29:00,,0832.1,5.00,0.00,29.9,28.8,00.0,39.1,31.5,15.7,0002.7,0009.91,0005.30,0004.75
2021-10-03 08:30:00,,0832.1,5.00,0.00,29.9,28.8,00.0,39.1,31.5,15.6,0002.5,0009.98,0005.30,0004.75
2021-10-03 08:31:00,,0832.1,5.00,0.00,29.9,28.8,00.0,39.1,31.5,15.6,0002.3,0010.09,0005.32,0004.75
2021-10-03 08:32:00,,0832.1,4.99,0.00,29.8,28.8,00.0,39.0,31.5,15.6,0002.3,0009.95,0005.34,0004.76
2021-10-03 08:33:00,,0832.0,4.99,0.00,29.8,28.7,00.0,39.0,31.5,15.6,0001.8,0010.32,0005.38,0004.75
2021-10-03 08:34:00,,0832.1,5.01,0.00,29.8,28.7,00.0,39.0,31.4,15.6,0001.9,0011.29,0005.41,0004.75
2021-10-03 08:35:00,,0832.0,5.00,0.00,29.8,28.7,00.0,39.0,31.4,15.7,0001.8,0011.26,0005.42,0004.75
2021-10-03 08:36:00,,0832.0,5.00,0.00,29.8,28.7,00.0,39.0,31.4,15.7,0002.0,0010.87,0005.46,0004.75
2021-10-03 08:37:00,,0832.0,4.99,0.00,29.8,28.7,00.0,39.0,31.5,15.6,0001.7,0011.20,0005.51,0004.75
2021-10-03 08:38:00,,0831.9,5.01,0.00,29.8,28.7,00.0,39.0,31.5,15.6,0001.9,0011.35,0005.51,0004.75
2021-10-03 08:39:00,,0831.9,5.00,0.00,29.8,28.7,00.0,39.0,31.5,15.6,0002.3,0011.36,0005.52,0004.75
2021-10-03 08:40:00,,0831.9,4.99,0.00,29.8,28.7,00.0,39.0,31.4,15.6,0002.6,0011.30,0005.51,0004.75
2021-10-03 08:41:00,,0832.0,5.00,0.00,29.8,28.7,00.0,39.0,31.4,15.7,0002.8,0011.21,0005.48,0004.74
2021-10-03 08:42:00,,0832.0,5.01,0.00,29.8,28.6,00.0,39.0,31.4,15.7,0002.8,0011.12,0005.48,0004.76
2021-10-03 08:43:00,,0832.0,5.00,0.00,29.8,28.6,00.0,39.0,31.4,15.7,0003.2,0011.99,0005.47,0004.77
2021-10-03 08:44:00,,0832.0,5.00,0.00,29.8,28.6,00.0,39.0,31.4,15.7,0003.5,0011.87,0005.45,0004.77
2021-10-03 08:45:00,,0832.0,4.99,0.00,29.8,28.7,00.0,39.0,31.4,15.7,0003.6,0011.64,0005.44,0004.76
2021-10-03 08:46:00,,0831.9,4.99,0.00,29.8,28.7,00.0,39.0,31.4,15.7,0003.5,0011.62,0005.43,0004.74
2021-10-03 08:47:00,,0832.0,5.01,0.00,29.8,28.7,00.0,39.0,31.4,15.7,0003.1,0011.51,0005.40,0004.74
2021-10-03 08:48:00,,0832.0,5.00,0.00,29.8,28.7,00.0,39.0,31.4,15.7,0003.2,0011.38,0005.39,0004.72
2021-10-03 08:49:00,,0831.9,5.00,0.00,29.7,28.6,00.0,38.9,31.4,15.7,0003.1,0010.93,0005.41,0004.73
2021-10-03 08:50:00,,0831.9,4.99,0.00,29.7,28.6,00.0,38.9,31.4,15.7,0003.0,0011.14,0005.42,0004.72
2021-10-03 08:51:00,,0831.8,4.99,0.00,29.7,28.7,00.0,38.9,31.4,15.8,0002.8,0011.37,0005.42,0004.70
2021-10-03 08:52:00,,0831.8,5.00,0.00,29.7,28.7,00.0,38.9,31.4,15.7,0002.4,0011.33,0005.39,0004.69
2021-10-03 08:53:00,,0831.8,5.00,0.00,29.7,28.7,00.0,38.9,31.4,15.7,0002.1,0011.33,0005.37,0004.68
2021-10-03 08:54:00,,0831.8,5.00,0.00,29.7,28.7,00.0,38.9,31.4,15.7,0001.9,0010.74,0005.37,0004.66
2021-10-03 08:55:00,,0831.8,4.99,0.00,29.7,28.7,00.0,38.9,31.4,15.7,0001.2,0011.19,0005.38,0004.65
2021-10-03 08:56:00,,0831.8,5.01,0.00,29.7,28.6,00.0,38.9,31.3,15.7,0000.9,0011.71,0005.37,0004.65
2021-10-03 08:57:00,,0831.7,4.99,0.00,29.7,28.6,00.0,38.9,31.4,15.8,0001.2,0012.10,0005.34,0004.65
2021-10-03 08:58:00,,0831.7,5.00,0.00,29.7,28.6,00.0,38.9,31.3,15.8,0001.4,0012.80,0005.28,0004.63
2021-10-03 08:59:00,,0831.7,5.00,0.00,29.7,28.6,00.0,38.9,31.4,15.8,0001.2,0013.62,0005.23,0004.63
